Logan, UT

3:01 AM MDT on August 26, 2016 (GMT -0600)
Logan-Cache

Weather History for KLGU - November, 2012

Change the Weather History Date:

Monday, November 19, 2012

  Actual Average Record
Temperature  
Mean Temperature 46 °F -  
Max Temperature 54 °F 43 °F 66 °F (2007)
Min Temperature 34 °F 23 °F 6 °F (2011)
Degree Days  
Heating Degree Days 20    
Moisture  
Dew Point 37 °F    
Average Humidity 83    
Maximum Humidity 100    
Minimum Humidity 47    
Precipitation  
Precipitation 0.01 in - - ()
Sea Level Pressure  
Sea Level Pressure 30.21 in    
Wind  
Wind Speed 3 mph (East)    
Max Wind Speed 10 mph    
Max Gust Speed -    
Visibility 10 miles    
Events Rain    
Averages and records for this station are not official NWS values.
T = Trace of Precipitation, MM = Missing Value Source: NWS Daily Summary

Daily Weather History Graph

Daily Weather History Graph

Search for Another Location

Airport or City:

Trip Planner

Search our weather history database for the weather conditions in past years. The results will help you decide how hot, cold, wet, or windy it might be!

Date:

Astronomy

Nov. 19, 2012 Rise Set
Actual Time 7:22 AM MST 5:03 PM MST
Civil Twilight 6:52 AM MST 5:33 PM MST
Nautical Twilight 6:18 AM MST 6:07 PM MST
Astronomical Twilight 5:45 AM MST 6:40 PM MST
Moon 12:25 PM MST (11/19) 11:36 PM MST (11/19)
Length of Visible Light 10h 41m
Length of Day
9h 40m
Waxing Crescent, 41% of the Moon is Illuminated
Nov 19
Waxing Crescent
Nov 20
First Quarter
Nov 28
Full
Dec 6
Last Quarter
Dec 13
New

Hourly Weather History & Observations

Time (MST) Temp. Windchill Dew Point Humidity Pressure Visibility Wind Dir Wind Speed Gust Speed Precip Events Conditions
12:51 AM 39.0 °F 35.7 °F 37.0 °F 93% 30.14 in 10.0 mi North 4.6 mph - N/A   Overcast
1:51 AM 39.9 °F 36.7 °F 37.0 °F 89% 30.14 in 10.0 mi NNE 4.6 mph - 0.01 in Rain Light Rain
3:51 AM 37.0 °F 33.3 °F 36.0 °F 96% 30.17 in 10.0 mi SSW 4.6 mph - N/A   Mostly Cloudy
4:12 AM 37.4 °F - 35.6 °F 93% 30.18 in 10.0 mi Calm Calm - N/A   Overcast
4:21 AM 37.4 °F - 37.4 °F 100% 30.18 in 10.0 mi Calm Calm - N/A   Overcast
4:51 AM 37.9 °F - 37.0 °F 97% 30.18 in 10.0 mi Calm Calm - N/A   Overcast
4:59 AM 37.4 °F - 37.4 °F 100% 30.17 in 10.0 mi Calm Calm - N/A   Mostly Cloudy
5:51 AM 37.9 °F 35.5 °F 37.0 °F 97% 30.19 in 10.0 mi SE 3.5 mph - N/A   Overcast
6:51 AM 37.9 °F - 37.0 °F 97% 30.22 in 10.0 mi Calm Calm - N/A   Overcast
7:51 AM 39.0 °F - 37.0 °F 93% 30.23 in 9.0 mi Calm Calm - 0.00 in   Overcast
8:51 AM 39.9 °F - 37.9 °F 93% 30.24 in 10.0 mi Calm Calm - 0.00 in   Overcast
9:51 AM 42.1 °F 38.4 °F 39.0 °F 89% 30.25 in 10.0 mi North 5.8 mph - N/A   Overcast
10:51 AM 45.0 °F 42.6 °F 41.0 °F 86% 30.25 in 10.0 mi North 4.6 mph - N/A   Overcast
11:51 AM 48.0 °F - 41.0 °F 77% 30.23 in 10.0 mi Calm Calm - N/A   Scattered Clouds
12:51 PM 50.0 °F - 39.0 °F 66% 30.21 in 10.0 mi Calm Calm - N/A   Partly Cloudy
1:51 PM 54.0 °F - 39.9 °F 59% 30.18 in 10.0 mi Variable 3.5 mph - N/A   Clear
2:51 PM 54.0 °F - 36.0 °F 51% 30.19 in 10.0 mi SSW 10.4 mph - N/A   Clear
3:51 PM 54.0 °F - 34.0 °F 47% 30.19 in 10.0 mi South 9.2 mph - N/A   Clear
4:51 PM 51.1 °F - 36.0 °F 56% 30.19 in 10.0 mi SSW 3.5 mph - N/A   Clear
5:51 PM 44.1 °F 41.5 °F 37.0 °F 76% 30.22 in 10.0 mi ESE 4.6 mph - N/A   Scattered Clouds
6:51 PM 44.1 °F 42.5 °F 36.0 °F 73% 30.23 in 10.0 mi ESE 3.5 mph - N/A   Clear
7:51 PM 43.0 °F - 36.0 °F 76% 30.23 in 10.0 mi Calm Calm - N/A   Clear
8:51 PM 37.0 °F - 33.1 °F 86% 30.24 in 10.0 mi Calm Calm - N/A   Clear
10:51 PM 37.0 °F 34.5 °F 33.1 °F 86% 30.24 in 10.0 mi East 3.5 mph - N/A   Clear
11:51 PM 34.0 °F 31.0 °F 32.0 °F 92% 30.24 in 10.0 mi NW 3.5 mph - N/A   Clear